Welcome to the New NWS' Forecast!
Most changes are behind the scenes, but click here for differences you might notice.
Latest weather observations around

Hartford, Hartford-Brainard Airport (KHFD)

Using English Units (Switch to International System of Units)
Date/ Time (EST) Wind (mph) Vis. (mi) Weather Sky Cond. Temp (°F) Rel. Humidity Wind Chill (°F) Heat Index (°F) Pressure Precip. (in)
Air Dwpt 6 hour Altimeter (inHg) Sea level (inHg) 1 hr 3 hr 6 hr
Max Min
Nov 18 02:53 Calm 10 Clear CLR 27 22     81%     30.01 30.01      
Nov 18 01:53 S 3 10 Clear CLR 28 22     78% 24   30.04 30.04      
Nov 18 00:53 Calm 10 Clear CLR 27 20     75%     30.03 30.03      
Notice The following observation data may not be complete
Nov 17 23:53 WNW 5 10 Clear CLR   17      %     30.05 30.05      
Nov 17 22:53 Calm 10 Clear CLR 28 22     78%     30.04 30.03      
Nov 17 21:53 Calm 10 Clear CLR 29 21     72%     30.04 30.03      
Nov 17 20:53 Calm 10 Clear CLR 30 20     66%     30.04 30.04      
Nov 17 19:53 Calm 10 Clear CLR 36 15     42%     30.06 30.06      
Nov 17 18:53 NW 5 10 Clear CLR 38 15     39% 34   30.04 30.04      
Nov 17 17:53 WNW 9 10 Clear CLR 40 15     36% 34   30.05 30.05      
Nov 17 16:53 WNW 11 10 Clear CLR 41 16     36% 34   30.04 30.03      
Nov 17 15:53 WNW 6 10 Clear CLR 43 18     36% 39   30.03 30.02      
Nov 17 14:53 NW 13 10 Clear CLR 44 19     36% 38   30 29.99      
Nov 17 13:53 NW 14 10 Clear CLR 44 21     40% 37   29.99 29.99      
Nov 17 12:53 WNW 16 10 Clear CLR 43 22     43% 35   29.99 29.98      
Nov 17 11:53 NW 13 10 Clear CLR 43 24     47% 36   29.98 29.97      
Nov 17 10:53 NNW 11 10 Mostly Clear FEW030 42 24     49% 36   30 30      
Nov 17 09:53 NNW 13 10 Mostly Clear FEW042 40 24     53% 32   30.02 30.01      
Nov 17 08:53 NW 14 10 Mostly Cloudy BKN039 BKN046 40 25     55% 32   30 30      
Nov 17 07:53 NW 13 10 Partly Cloudy SCT036 38 26     62% 30   29.98 29.98      
Nov 17 06:53 NW 14 10 Mostly Clear FEW037 38 25     59% 30   29.95 29.95      
Nov 17 05:53 NNW 13 10 Cloudy OVC037 39 27     62% 31   29.92 29.92      
Nov 17 04:53 NW 18 10 Clear CLR 40 27     60% 31   29.88 29.88      
Nov 17 03:53   10 Partly Cloudy SCT040 41 28     60%     29.86 29.86      
Nov 17 02:53 NW 11 10 Mostly Cloudy BKN040 42 30     62% 36   29.85 29.84      
Nov 17 01:53 WNW 10 10 Clear CLR 42 32     67% 36   29.83 29.83      
Nov 17 00:53 NW 8 10 Mostly Clear FEW036 43 33     68% 38   29.81 29.8      
Nov 16 23:53 Calm 10 Clear CLR 39 35     86%     29.81 29.8      
Nov 16 22:53 WNW 6 10 Mostly Clear FEW075 43 35     73% 39   29.8 29.8      
Nov 16 21:53 W 13 10 Clear CLR 45 36     71% 39   29.79 29.79      
Nov 16 20:53 W 10 10 Clear CLR 45 37     74% 40   29.79 29.78      
Nov 16 19:53 W 8 10 Mostly Cloudy BKN055 45 38     76% 41   29.78 29.78      
Nov 16 18:53 WNW 7 10 Mostly Clear FEW075 47 37     68% 44   29.78 29.78     0
Nov 16 17:53 W 6 10 Mostly Cloudy FEW034 BKN060 48 40     73% 45   29.77 29.77 0    
Nov 16 16:53 WSW 5 10 Light Rain FEW049 SCT090 47 42     83% 45   29.74 29.74 0    
Nov 16 16:21 W 14 9 Light Rain FEW036 BKN049 OVC090 48 42     80% 42   29.73   0    
Nov 16 16:06 Calm 10 Light Rain BKN090 47 44     90%     29.72   0    
Nov 16 15:53 Calm 10 Light Rain FEW095 48 43     83%     29.71 29.71 0 0  
Nov 16 14:53 Calm 6 Fog/Mist FEW006 SCT045 BKN090 50 47     89%     29.71 29.71      
Nov 16 14:10 SE 3 6 Fog/Mist SCT007 OVC090 49 46     90% 48   29.72        
Nov 16 13:53 Calm 6 Fog/Mist BKN006 BKN075 OVC095 49 46     90%     29.72 29.72      
Nov 16 12:53 N 6 7 Cloudy BKN006 OVC065 47 44     90% 44   29.74 29.74     0
Nov 16 12:42 Calm 9 Cloudy BKN004 OVC065 48 45     89%     29.74        
Nov 16 12:32 Calm 8 Cloudy SCT004 BKN050 OVC065 46 44     93%     29.75        
Nov 16 11:53 Calm 4 Fog/Mist BKN004 OVC050 44 43     96%     29.78 29.77 0    
Nov 16 11:25 Calm 3 Light Rain and Fog/Mist BKN004 OVC055 44 43     96%     29.79   0    
Nov 16 11:12 Calm 2.5 Light Rain and Fog/Mist OVC004 44 42     93%     29.8   0    
Nov 16 10:53 Calm 6 Light Rain and Fog/Mist BKN004 OVC050 43 42     97%     29.82 29.81 0    
Nov 16 10:35 Calm 8 Light Rain BKN004 OVC046 43 42     97%     29.83   0    
Nov 16 10:19 E 3 4 Light Rain and Fog/Mist FEW004 OVC046 42 42     100% 40   29.84   0    
Nov 16 09:57 ENE 5 3 Light Rain and Fog/Mist SCT017 BKN047 OVC060 42 41     96% 39   29.85   0    
Nov 16 09:53 NE 6 2.5 Light Rain and Fog/Mist FEW010 BKN019 OVC046 42 40     92% 38   29.85 29.85 0 0  
Nov 16 09:44 Calm 1.75 Light Rain and Fog/Mist FEW010 OVC018 42 41     96%     29.86   0    
Nov 16 09:29 NNW 8 4 Light Rain and Fog/Mist FEW009 BKN016 OVC020 42 40     92% 37   29.87   0    
Nov 16 09:19 NW 7 6 Light Rain and Fog/Mist OVC022 42 40     92% 38   29.87   0    
Nov 16 09:11 N 6 2.5 Light Rain and Fog/Mist BKN022 OVC027 41 39     93% 37   29.87   0    
Nov 16 08:53 N 6 4 Light Rain and Fog/Mist OVC025 42 39     89% 38   29.87 29.87 0    
Nov 16 08:29 NNW 6 7 Light Rain BKN025 OVC032 42 38     85% 38   29.88   0    
Nov 16 07:53 NNW 5 8 Light Rain OVC030 43 37     79% 40   29.89 29.89 0    
Nov 16 06:53 Calm 10 Cloudy OVC038 42 37     82%     29.91 29.91      
Nov 16 05:53 Calm 10 Cloudy OVC035 43 37     79%     29.93 29.93      
Nov 16 04:53 Calm 10 Cloudy OVC036 42 36     79%     29.96 29.96      
Nov 16 03:53 Calm 10 Cloudy OVC036 43 36     76%     30 30      
Nov 16 02:53 ESE 3 10 Cloudy OVC048 42 36     79% 40   30.02 30.01      
Nov 16 01:53 SSE 5 10 Cloudy OVC050 42 35     76% 39   30.04 30.04      
Nov 16 00:53 Calm 10 Cloudy OVC049 41 34     76%     30.07 30.06      
Nov 15 23:53 Calm 10 Cloudy OVC045 41 32     70%     30.1 30.1      
Nov 15 22:53 S 3 10 Cloudy OVC044 41 32     70% 39   30.12 30.11      
Nov 15 21:53 Calm 10 Cloudy OVC045 42 31     64%     30.12 30.12      
Nov 15 20:53 Calm 10 Cloudy OVC045 41 30     65%     30.13 30.13      
Nov 15 19:53 Calm 10 Cloudy OVC046 38 30     73%     30.16 30.16      
Nov 15 18:53 Calm 10 Clear CLR 36 29     75%     30.18 30.17      
Nov 15 17:53 S 5 10 Clear CLR 38 29     70% 34   30.18 30.18      
Nov 15 16:53 Calm 10 Clear CLR 40 28     62%     30.19 30.18      
Nov 15 15:53 S 5 10 Clear CLR 46 27     47% 44   30.18 30.18      
Nov 15 14:53 SSE 5 10 Clear CLR 48 27     44% 46   30.19 30.19      
Nov 15 13:53 Calm 10 Clear CLR 47 27     46%     30.2 30.2      
Nov 15 12:53 Calm 10 Clear CLR 47 28     48%     30.23 30.23      
Nov 15 11:53 3 10 Clear CLR 44 29     55% 43   30.25 30.25      
Nov 15 10:53 Calm 10 Clear CLR 43 30     60%     30.29 30.29      
Nov 15 09:53 NNE 3 10 Clear CLR 40 31     70% 38   30.32 30.32      
Nov 15 08:53 Calm 9 Clear CLR 35 31     85%     30.34 30.34      
Nov 15 07:53 Calm 10 Clear CLR 30 28     92%     30.34 30.33      
Nov 15 06:53 Calm 10 Clear CLR 26 24     92%     30.34 30.33      
Nov 15 05:53 Calm 10 Clear CLR 26 24     92%     30.33 30.33      
Nov 15 05:01 Calm 0.75 Fog/Mist CLR 28 26     92%     30.33        
Nov 15 04:53 Calm 2.5 Fog/Mist CLR 28 25     88%     30.33 30.33      
Nov 15 04:33 Calm 2.5 Fog/Mist CLR 28 26     92%     30.33        
Nov 15 04:21 Calm 1.75 Fog/Mist CLR 28 26     92%     30.33        
Nov 15 03:53 Calm 6 Fog/Mist CLR 27 26     96%     30.32 30.32      
Jun 11 10:53 5 10 Clear CLR 84 63     49%   85 30.01 30.01      
Jun 10 18:53   10 Clear   79 57     47%   79 29.93 29.93      
Jun 10 12:51 SW 8 10 Mostly Cloudy BKN075 82 55     40%   82 29.95        
Jun 10 08:53 E 3 10 Clear CLR 71 56     59%   71 29.97 29.97      
Jun 09 22:53 S 3 10 Clear CLR 61 55     81%     29.84 29.83      
Jun 08 01:53 Calm 10 Clear CLR 53 50     89%     30.02 30.02      
Jun 07 09:53 NNE 10 10 Cloudy OVC060 59 49     69%     29.99 29.98      
Jun 07 08:53 N 8 10 Cloudy SCT055 BKN070 OVC080 57 50     77%     29.98 29.98      
Jun 06 14:53 N 9 6 Light Rain and Fog/Mist BKN014 OVC019 51 49     92%     29.82 29.82 0    
Notice The following observation data may not be complete
Jun 06 08:11   2.5 Light Rain and Fog/Mist BKN007 OVC014          %         0    
Jun 06 07:49 N 10 2.5 Light Rain and Fog/Mist OVC012 52 48     87%     29.79   0